www.pogodaiklimat.ru

Погода и климат >> Архив погоды >> Бразилия >> Рондония >> Какуал


ПОГОДА в Какуале

  • Прогноз погоды в Какуале
  • Монитор погоды в Какуале

АРХИВ ПОГОДЫ в Какуале

Время (UTC), дата Ветер
(напр.,м/с)
 
Видим.   Явления Облачность Т
(С)
Тd
(С)
f
(%)
Тe
(С)
Тes
(С)
Комфортность P
(гПа)
Po
(гПа)
Тmin
(С)
Tmax
(С)
R
(мм)
R24
(мм)
S
(см)
04 16.08 штиль 0
{1}
н/о н/о +22.1 +15.1 65 +26 +26 душно 1013.3 992.0
05 16.08 штиль 0
{1}
н/о н/о +20.8 +15.4 71 +24 +24 комфорт 1012.8 991.4
06 16.08 ЮЗ 1
{1}
н/о н/о +20.2 +15.1 72 +24 +24 комфорт 1012.6 991.2
07 16.08 СЗ 1
{1}
н/о н/о +19.3 +15.5 79 +23 +23 комфорт 1012.8 991.3
08 16.08 ЮЗ 1
{1}
н/о н/о +19.0 +15.5 80 +22 +22 комфорт 1012.6 991.1
09 16.08 штиль 0
{1}
н/о н/о +19.0 +15.0 78 +20 +20 1013.2 991.7
10 16.08 З 1
{1}
н/о н/о +18.0 +14.7 81 +20 +20 1013.7 992.1
11 16.08 штиль 0
{1}
н/о н/о +19.3 +15.7 80 +21 +21 комфорт 1014.6 993.1
12 16.08 Ю 1
{1}
н/о н/о +22.6 +14.9 62 +26 +26 жарко 1015.0 993.7
13 16.08 Ю 1
{1}
н/о н/о +26.1 +14.5 49 +29 +29 жарко 1015.0 993.9
14 16.08 Ю 1
{3}
н/о н/о +28.7 +13.5 39 +30 +30 жарко 1014.9 994.0
15 16.08 Ю 1
{3}
н/о н/о +32.3 +12.0 29 +33 +33 жарко 1014.1 993.5
16 16.08 В 1
{3}
н/о н/о +34.3 +11.5 25 +34 +34 очень
жарко
1012.9 992.4
17 16.08 СВ 2
{3}
н/о н/о +35.5 +10.8 22 +35 +35 очень
жарко
1011.4 991.1
18 16.08 С 1
{4}
н/о н/о +36.6 +11.2 22 +36 +36 очень
жарко
1010.3 990.0
19 16.08 СВ 1
{4}
н/о н/о +36.6 +11.7 22 +36 +36 очень
жарко
1009.4 989.2
20 16.08 С 1
{3}
н/о н/о +36.4 +11.8 23 +36 +36 очень
жарко
1009.2 989.0
21 16.08 С 1
{3}
н/о н/о +34.8 +12.0 25 +35 +35 очень
жарко
1009.5 989.1
22 16.08 СВ 1
{2}
н/о н/о +32.2 +12.8 31 +33 +33 жарко 1009.9 989.4
23 16.08 СВ 1
{2}
н/о н/о +29.9 +13.9 38 +32 +32 жарко 1010.5 989.8
00 17.08 СВ 1
{1}
н/о н/о +28.8 +14.5 42 +31 +31 жарко 1011.0 990.2
01 17.08 штиль 0
{1}
н/о н/о +27.6 +15.8 49 +31 +31 душно 1011.6 990.7
02 17.08 штиль 0
{1}
н/о н/о +25.9 +15.9 54 +29 +29 душно 1011.9 990.9
03 17.08 Ю 1
{2}
н/о н/о +24.7 +16.4 60 +28 +28 душно 1012.0 990.9
04 17.08 Ю 1
{2}
н/о н/о +23.1 +17.1 69 +28 +28 душно 1012.1 990.9
05 17.08 штиль 0
{1}
н/о н/о +23.2 +16.8 67 +28 +28 душно 1011.7 990.5
06 17.08 С 1
{1}
н/о н/о +22.7 +17.2 71 +28 +28 душно 1011.3 990.1
07 17.08 СЗ 1
{1}
н/о н/о +22.2 +17.0 72 +27 +27 душно 1011.3 990.0
08 17.08 СВ 1
{1}
н/о н/о +21.6 +16.8 74 +26 +26 душно 1011.5 990.2
09 17.08 СЗ 1
{1}
н/о н/о +21.4 +16.7 75 +25 +25 комфорт 1011.8 990.5
10 17.08 штиль 0
{1}
н/о н/о +21.1 +16.9 77 +25 +25 комфорт 1012.3 990.9
11 17.08 СЗ 1
{1}
н/о н/о +21.9 +17.0 74 +26 +26 душно 1013.1 991.8
12 17.08 СВ 1
{1}
н/о н/о +25.9 +17.2 59 +30 +30 душно 1013.0 992.0
13 17.08 С 1
{2}
н/о н/о +29.0 +17.8 51 +33 +33 очень
душно
1013.1 992.3
14 17.08 С 1
{3}
н/о н/о +32.6 +16.8 39 +36 +36 очень
душно
1012.8 992.2
15 17.08 С 1
{3}
н/о н/о +33.6 +15.8 34 +36 +36 очень
душно
1012.0 991.5
16 17.08 СВ 1
{4}
н/о н/о +35.6 +15.4 30 +37 +37 душно 1010.9 990.6
17 17.08 С 2
{5}
н/о н/о +35.2 +15.2 30 +37 +37 очень
душно
1009.7 989.4
18 17.08 С 2
{5}
н/о н/о +35.7 +15.5 30 +37 +37 душно 1008.9 988.6
19 17.08 СВ 2
{4}
н/о н/о +34.9 +15.2 31 +37 +37 очень
душно
1008.3 988.0
20 17.08 СВ 1
{4}
н/о н/о +34.4 +16.1 34 +37 +37 очень
душно
1008.2 987.8
21 17.08 СВ 1
{3}
н/о н/о +33.1 +17.2 39 +37 +37 очень
душно
1008.5 988.1
22 17.08 СВ 1
{3}
н/о н/о +31.1 +18.1 46 +36 +36 очень
душно
1009.0 988.4
23 17.08 СВ 1
{2}
н/о н/о +29.9 +18.5 50 +35 +35 очень
душно
1009.7 989.0
00 18.08 СВ 1
{2}
н/о н/о +29.0 +19.0 55 +34 +34 очень
душно
1010.3 989.5
01 18.08 СВ 1
{2}
н/о н/о +28.1 +19.3 59 +34 +34 очень
душно
1011.0 990.2
02 18.08 СВ 1
{1}
н/о н/о +27.1 +19.4 63 +33 +33 очень
душно
1011.3 990.4
03 18.08 С 1
{1}
н/о н/о +26.2 +19.8 68 +32 +32 очень
душно
1011.9 990.9
04 18.08 С 1
{2}
н/о н/о +25.8 +19.8 69 +31 +31 очень
душно
1012.0 991.0
05 18.08 С 1
{2}
н/о н/о +25.5 +19.9 71 +31 +31 очень
душно
1012.0 991.0
06 18.08 штиль 0
{2}
н/о н/о +24.5 +19.8 75 +30 +30 очень
душно
1011.6 990.5
07 18.08 штиль 0
{1}
н/о н/о +24.0 +19.5 76 +29 +29 душно 1011.4 990.3
08 18.08 штиль 0
{1}
н/о н/о +23.7 +19.5 77 +29 +29 душно 1011.3 990.2
09 18.08 Ю 1
{1}
н/о н/о +23.2 +19.7 81 +30 +30 очень
душно
1012.0 990.8
10 18.08 С 1
{1}
н/о н/о +23.6 +19.8 79 +29 +29 душно 1012.7 991.5
11 18.08 СВ 1
{2}
н/о н/о +25.0 +19.6 72 +30 +30 душно 1013.6 992.5
12 18.08 СВ 1
{2}
н/о н/о +27.7 +20.0 63 +34 +34 очень
душно
1013.9 993.0
13 18.08 СЗ 1
{2}
н/о н/о +29.4 +19.7 56 +35 +35 очень
душно
1014.3 993.5
14 18.08 З 1
{2}
н/о н/о +29.5 +20.7 59 +37 +37 очень
душно
1014.7 993.9
15 18.08 З 2
{3}
н/о н/о +31.7 +19.3 48 +37 +37 очень
душно
1014.3 993.6
16 18.08 З 1
{3}
н/о н/о +33.1 +19.2 44 +38 +38 очень
душно
1013.1 992.6
17 18.08 СЗ 2
{3}
н/о н/о +33.8 +18.3 40 +38 +38 очень
душно
1012.0 991.5
18 18.08 СЗ 1
{4}
н/о н/о +33.6 +17.3 38 +37 +37 очень
душно
1010.6 990.1
19 18.08 СВ 3
{5}
н/о н/о +25.4 +19.2 69 +31 +31 очень
душно
1010.9 989.9 0.2
20 18.08 З 1
{5}
н/о н/о +25.2 +19.5 71 +31 +31 очень
душно
1010.7 989.7 0.8
21 18.08 СВ 1
{3}
н/о н/о +25.6 +20.7 74 +32 +32 очень
душно
1010.8 989.8 0.2
22 18.08 СЗ 1
{2}
н/о н/о +25.7 +21.1 76 +32 +32 очень
душно
1011.6 990.6
23 18.08 СЗ 1
{2}
н/о н/о +26.0 +20.5 72 +32 +32 очень
душно
1012.0 991.0
00 19.08 ЮВ 1
{2}
н/о н/о +24.9 +20.5 77 +31 +31 очень
душно
1012.7 991.6
01 19.08 штиль 0
{1}
н/о н/о +24.3 +21.0 82 +31 +31 очень
душно
1013.2 992.1
02 19.08 Ю 1
{1}
н/о н/о +24.1 +21.0 83 +30 +30 очень
душно
1013.8 992.6
03 19.08 В 1
{1}
н/о н/о +24.3 +20.3 78 +30 +30 очень
душно
1014.0 992.8
04 19.08 СВ 1
{1}
н/о н/о +23.1 +20.7 86 +30 +30 очень
душно
1014.0 992.8
05 19.08 штиль 0
{1}
н/о н/о +22.8 +20.5 87 +30 +30 очень
душно
1013.6 992.3
06 19.08 С 1
{1}
н/о н/о +22.7 +20.6 88 +30 +30 очень
душно
1013.3 992.0
07 19.08 ЮВ 1
{2}
н/о н/о +22.3 +20.5 90 +29 +29 очень
душно
1013.6 992.3
08 19.08 В 1
{2}
н/о н/о +22.2 +20.1 88 +28 +28 душно 1013.4 992.1
09 19.08 штиль 0
{1}
н/о н/о +22.4 +20.4 88 +29 +29 очень
душно
1013.6 992.3
10 19.08 ЮВ 1
{2}
н/о н/о +21.9 +20.1 90 +28 +28 душно 1013.9 992.6
11 19.08 штиль 0
{2}
н/о н/о +22.2 +20.4 90 +29 +29 очень
душно
1014.6 993.3
12 19.08 З 1
{2}
н/о н/о +24.3 +20.6 80 +30 +30 очень
душно
1015.2 994.0
13 19.08 З 1
{2}
н/о н/о +26.4 +20.9 72 +33 +33 очень
душно
1015.1 994.1
14 19.08 З 1
{2}
н/о н/о +29.2 +20.1 58 +36 +36 очень
душно
1015.1 994.3
15 19.08 СЗ 1
{3}
н/о н/о +29.1 +20.7 61 +36 +36 очень
душно
1014.9 994.1
16 19.08 З 2
{3}
н/о н/о +31.0 +20.1 52 +37 +37 очень
душно
1014.0 993.3
17 19.08 СЗ 2
{4}
н/о н/о +31.6 +19.4 48 +37 +37 очень
душно
1013.0 992.4
18 19.08 СЗ 2
{4}
н/о н/о +30.8 +20.2 53 +37 +37 очень
душно
1011.4 990.7
19 19.08 З 2
{4}
н/о н/о +31.1 +19.0 49 +37 +37 очень
душно
1010.6 990.0
20 19.08 ЮЗ 2
{3}
н/о н/о +31.1 +17.3 44 +35 +35 очень
душно
1010.6 990.0
21 19.08 Ю 1
{3}
н/о н/о +30.2 +18.2 49 +35 +35 очень
душно
1011.8 991.1
22 19.08 СВ 2
{5}
н/о н/о +26.8 +19.7 65 +33 +33 очень
душно
1012.3 991.3
23 19.08 В 1
{4}
н/о н/о +25.1 +19.3 70 +30 +30 душно 1012.1 991.0
00 20.08 ЮВ 1
{2}
н/о н/о +25.0 +19.7 72 +30 +30 душно 1012.5 991.4
01 20.08 ЮВ 1
{2}
н/о н/о +24.0 +20.0 78 +29 +29 душно 1013.1 991.9
02 20.08 штиль 0
{2}
н/о н/о +23.9 +20.3 80 +30 +30 очень
душно
1013.3 992.1
03 20.08 ЮВ 1
{1}
н/о н/о +23.3 +20.1 82 +30 +30 очень
душно
1013.2 992.0
07 20.08 ЮЗ 1
{1}
н/о н/о +21.8 +19.8 88 +27 +27 душно 1013.1 991.8
08 20.08 штиль 0
{1}
н/о н/о +22.0 +20.1 89 +28 +28 душно 1013.1 991.8
09 20.08 СВ 1
{1}
н/о н/о +22.4 +20.0 86 +29 +29 очень
душно
1013.6 992.3
10 20.08 штиль 0
{1}
н/о н/о +22.4 +20.1 87 +29 +29 очень
душно
1014.3 993.0
12 20.08 ЮВ 1
{1}
н/о н/о +23.7 +20.7 83 +30 +30 очень
душно
1015.4 994.2
13 20.08 Ю 1
{2}
н/о н/о +26.3 +20.5 70 +33 +33 очень
душно
1015.8 994.7
14 20.08 Ю 1
{3}
н/о н/о +29.2 +20.0 58 +36 +36 очень
душно
1015.3 994.5
15 20.08 Ю 2
{4}
н/о н/о +31.8 +18.7 46 +37 +37 очень
душно
1014.7 994.0
16 20.08 ЮВ 2
{4}
н/о н/о +32.9 +18.5 43 +38 +38 очень
душно
1013.7 993.1
17 20.08 ЮВ 1
{4}
н/о н/о +34.1 +17.4 37 +38 +38 очень
душно
1012.3 991.8
18 20.08 В 1
{3}
н/о н/о +36.5 +16.0 30 +39 +39 очень
душно
1011.0 990.7
19 20.08 В 1
{3}
н/о н/о +35.4 +15.3 30 +37 +37 очень
душно
1010.0 989.7
20 20.08 В 1
{3}
н/о н/о +35.3 +15.1 30 +37 +37 очень
душно
1009.8 989.5
21 20.08 В 1
{3}
н/о н/о +34.0 +15.7 33 +36 +36 душно 1009.8 989.4
01 21.08 СЗ 1
{2}
н/о н/о +27.3 +19.0 61 +33 +33 очень
душно
1014.0 993.0
02 21.08 Ю 1
{2}
н/о н/о +26.4 +19.3 65 +32 +32 очень
душно
1014.6 993.6
03 21.08 Ю 1
{2}
н/о н/о +25.3 +19.6 71 +31 +31 очень
душно
1014.7 993.6
04 21.08 Ю 1
{2}
н/о н/о +24.7 +18.6 69 +29 +29 душно 1014.5 993.4
05 21.08 В 1
{2}
н/о н/о +24.2 +18.8 72 +29 +29 душно 1014.2 993.0
06 21.08 Ю 1
{1}
н/о н/о +23.4 +19.0 76 +30 +30 очень
душно
1013.5 992.3
07 21.08 ЮВ 1
{1}
н/о н/о +23.1 +19.0 78 +29 +29 очень
душно
1013.5 992.3
08 21.08 Ю 1
{1}
н/о н/о +22.7 +19.2 81 +29 +29 очень
душно
1013.5 992.2
09 21.08 Ю 1
{1}
н/о н/о +22.8 +19.2 80 +29 +29 очень
душно
1013.9 992.6
10 21.08 Ю 1
{1}
н/о н/о +22.7 +19.2 81 +29 +29 очень
душно
1014.7 993.4
11 21.08 Ю 1
{1}
н/о н/о +23.7 +19.3 76 +29 +29 душно 1015.4 994.2
12 21.08 Ю 1
{2}
н/о н/о +25.3 +19.1 69 +30 +30 душно 1016.0 994.9
13 21.08 ЮВ 1
{3}
н/о н/о +28.2 +18.6 56 +33 +33 очень
душно
1016.1 995.2
14 21.08 Ю 2
{4}
н/о н/о +30.3 +17.0 45 +34 +34 очень
душно
1015.8 995.0
15 21.08 Ю 2
{4}
н/о н/о +31.9 +17.3 42 +36 +36 очень
душно
1015.1 994.4
16 21.08 ЮВ 2
{4}
н/о н/о +33.8 +15.7 34 +36 +36 очень
душно
1014.0 993.5
17 21.08 ЮВ 2
{4}
н/о н/о +34.8 +15.6 32 +37 +37 очень
душно
1012.6 992.2
18 21.08 Ю 1
{4}
н/о н/о +35.7 +15.2 30 +37 +37 душно 1011.1 990.8
19 21.08 Ю 1
{4}
н/о н/о +35.1 +14.8 30 +37 +37 очень
душно
1010.4 990.0
20 21.08 Ю 1
{3}
н/о н/о +35.2 +14.7 29 +36 +36 очень
жарко
1010.1 989.8
21 21.08 С 1
{2}
н/о н/о +33.1 +16.7 38 +36 +36 очень
душно
1010.3 989.8
22 21.08 ЮЗ 1
{2}
н/о н/о +31.0 +17.2 44 +35 +35 очень
душно
1010.4 989.8
23 21.08 Ю 1
{1}
н/о н/о +30.2 +16.9 45 +34 +34 очень
душно
1011.1 990.4
00 22.08 штиль 0
{1}
н/о н/о +28.0 +18.2 55 +33 +33 очень
душно
1012.1 991.2
01 22.08 З 1
{2}
н/о н/о +26.2 +19.4 66 +32 +32 очень
душно
1013.0 992.0
02 22.08 штиль 0
{2}
н/о н/о +26.0 +18.2 62 +31 +31 очень
душно
1013.5 992.5
03 22.08 З 1
{1}
н/о н/о +25.1 +19.4 71 +30 +30 душно 1013.6 992.5
04 22.08 СЗ 1
{1}
н/о н/о +24.6 +18.5 69 +29 +29 душно 1013.4 992.3
05 22.08 З 1
{1}
н/о н/о +24.1 +18.7 72 +29 +29 душно 1013.0 991.8
06 22.08 штиль 0
{1}
н/о н/о +23.0 +19.0 78 +29 +29 очень
душно
1012.6 991.4
07 22.08 СЗ 1
{1}
н/о н/о +23.2 +18.8 76 +29 +29 душно 1012.3 991.1
08 22.08 З 1
{1}
н/о н/о +22.3 +18.8 81 +28 +28 душно 1012.7 991.4
09 22.08 З 1
{1}
н/о н/о +21.6 +18.7 84 +26 +26 душно 1012.8 991.5
10 22.08 З 1
{1}
н/о н/о +21.5 +18.8 85 +26 +26 душно 1013.7 992.3
11 22.08 Ю 1
{1}
н/о н/о +22.1 +18.9 82 +27 +27 душно 1014.6 993.3
12 22.08 Ю 1
{1}
н/о н/о +24.6 +19.9 75 +30 +30 очень
душно
1014.8 993.6
13 22.08 Ю 1
{3}
н/о н/о +27.6 +18.7 58 +33 +33 очень
душно
1014.6 993.7
14 22.08 Ю 1
{3}
н/о н/о +31.0 +17.5 44 +35 +35 очень
душно
1014.5 993.8
15 22.08 ЮВ 1
{3}
н/о н/о +33.2 +17.1 38 +36 +36 очень
душно
1013.6 993.1
16 22.08 ЮВ 1
{3}
н/о н/о +35.7 +16.4 32 +38 +38 очень
душно
1012.6 992.2
17 22.08 ЮВ 1
{3}
н/о н/о +35.9 +14.5 28 +37 +37 душно 1011.2 990.9
20 22.08 СВ 1
{3}
н/о н/о +36.7 +14.5 27 +38 +38 очень
душно
1009.6 989.4
22 22.08 СВ 1
{2}
н/о н/о +33.2 +15.8 35 +36 +36 очень
душно
1010.8 990.3
00 23.08 штиль 0
{1}
н/о н/о +28.6 +18.4 54 +33 +33 очень
душно
1012.4 991.6
01 23.08 Ю 1
{1}
н/о н/о +28.3 +19.6 59 +34 +34 очень
душно
1013.4 992.5
02 23.08 штиль 0
{2}
н/о н/о +26.5 +19.6 66 +32 +32 очень
душно
1014.2 993.2
05 23.08 Ю 1
{1}
н/о н/о +25.5 +19.2 68 +31 +31 очень
душно
1013.7 992.6

 

Местоположение метеостанции Какуал (Рондония, Бразилия): широта -11.45 долгота -61.43 высота над уровнем моря 212 м.

В архиве по умолчанию представлена погода в Какуале за последнюю неделю. Архивные данные за месяц целиком и за предыдущие месяцы, начиная с января 2011 года, Вы можете получить, выбрав интересующий диапазон дат из раскрывающегося списка и нажав кнопку "Ввод!".


*Определитесь, кто Вы:
робот инопланетянин человек

Внимание! Время в таблицах - всемирное. Для получения местного времени необходимо прибавить поправку, которая равна -3 ч.

Смотрите также архив погоды в соседних городах и на ближайших метеорологических станциях:

Погода в Вилене (Рондония, Бразилия) (199 км)
Погода в Вилене (Рондония, Бразилия) (201 км)
Погода в Арикемисе (Рондония, Бразилия) (236 км)
Погода в Жуине (Мату-Гросу, Бразилия) (289 км)
Погода в Комодоро (Мату-Гросу, Бразилия) (310 км)
Погода в Котригуасу (Мату-Гросу, Бразилия) (357 км)
Погода в Магдалене (Боливия) (358 км)
Погода в Ново-Мундо (Мату-Гросу, Бразилия) (368 км)
Погода в Порту-Велью (Рондония, Бразилия) (396 км)
Погода в Порту-Велью (Рондония, Бразилия) (403 км)

Пояснения к столбцам:

Ветер - указаны скорость ветра в м/с - средняя за 10 мин, порывы в срок и между сроками (в фигурных скобках) и направление, откуда дует ветер: С - северный, СВ - северо-восточный, В - восточный, ЮВ - юго-восточный, Ю - южный, ЮЗ - юго-западный, З - западный, СЗ - северо-западный.
Видимость - горизонтальная дальность видимости в метрах или километрах. При видимости от 1 до 10 км при отсутствии осадков обычно наблюдается дымка, при ухудшении видимости до 1 км и менее - туман. В сухую погоду видимость может ухудшаться дымом, пылью или мглою.
Явления - указаны атмосферные явления, наблюдавшиеся в срок или в последний час перед сроком; фигурными скобками обозначены явления, наблюдавшиеся между сроками (за 1-3 часа до срока); квадратными скобками обозначены град или гололедные отложения с указанием их диаметра в мм.
Облачность - указаны через наклонную черту общая и нижняя облачность в баллах и высота нижней границы облаков в метрах; квадратными скобками обозначены формы облаков: Ci - перистые, Cs - перисто-слоистые, Cc - перисто-кучевые, Ac - высококучевые, As - высокослоистые, Sc - слоисто-кучевые, Ns - слоисто-дождевые, Cu - кучевые, Cb - кучево-дождевые. Подробнее классификацию облаков см. в Атласе облаков (PDF).
T - Температура воздуха - температура, измеренная на высоте 2 м над землей.
Td - Температура точки росы - температура, при понижении до которой содержащийся в воздухе водяной пар достигнет насыщения.
f - Относительная влажность воздуха - влажноcть воздуха, измеренная на высоте 2 м над землей.
Te - Эффективная температура - температура, которую ощущает одетый по сезону человек в тени. Характеристика душности погоды. При расчете учитывается влияние влажности воздуха и скорости ветра на теплоощущения человека.
Tes - Эффективная температура на солнце - температура, которую ощущает человек, с поправкой на солнечный нагрев. Характеристика знойности погоды. Зависит от высоты солнца над горизонтом, облачности и скорости ветра. Ночью, в пасмурную погоду, а также при ветре 12 м/с и более поправка равна нулю.
P - Атмосферное давление - приведенное к уровню моря атмосферное давление.
Po - Атмосферное давление - измеренное на уровне метеостанции атмосферное давление.
Tmin - Минимальная температура - минимум температуры воздуха на высоте 2 м над землей.
Tmax - Максимальная температура - максимум температуры воздуха на высоте 2 м над землей.
R - Количество осадков - Количество выпавших осадков за период времени, мм. При наведении курсора мыши на число - период времени, за который выпало указанное количество осадков.
R24 - Количество осадков - Количество выпавших осадков за 24 часа, мм.
S - Снежный покров - Высота снежного покрова, см. При наведении курсора мыши на число - состояние снежного покрова и степень покрытия местности в баллах.